Location: Zagreb
(45.8000°N, 16.0000°E)
Time: 19:50:12
(UTC+02:00)

A-11 Canister half - Pass Details

Date: 13 August 2022
Orbit: 1524 x 1684 km, 47.3° (Epoch: 05 October)

Event Time Altitude Azimuth Distance (km) Brightness Sun altitude
Rises 07:55:00 0° 259° (W) 4,923 11.1 19.8°
Reaches altitude 10° 07:58:09 10° 260° (W) 3,943 10.6 20.4°
Maximum altitude 08:08:23 86° 349° (N) 1,690 9.6 22.1°
Drops below altitude 10° 08:18:32 10° 80° (E) 3,911 12.9 23.9°
Sets 08:21:39 0° 81° (E) 4,883 12.9 24.5°
